Location: El Limón
(10.3059°N, 67.6321°W)
Time: 04:19:51
(UTC+00:00)

ISS - Pass Details

Date: 14 April 2024
Orbit: 409 x 414 km, 51.6° (Epoch: 21 May)

Event Time Altitude Azimuth Distance (km) Brightness Sun altitude
Exits shadow 09:36:56 11° 218° (SW) 1,395 -1.6 -11.3°
Maximum altitude 09:40:03 84° 308° (NW) 414 -3.9 -10.5°
Drops below altitude 10° 09:43:19 10° 35° (NE) 1,464 -0.3 -9.7°
Sets 09:45:24 0° 36° (NE) 2,322 0.8 -9.2°
